FW8630 Weather Reports


Display with metric or nautical units.
time (UTC)temp
F
wind
direction
speed
MPH
gust
MPH
rain 1hr
in
rain 24hr
in
rain mn
in
humidity
%
barometer
mb
20260906171552 62 198 2.0 7.0 0.00 0.03 0.01 90 1019.3
20260906170055 63 188 3.0 8.0 0.00 0.03 0.01 89 1019.3
20260906164553 63 179 3.0 8.0 0.00 0.03 0.01 87 1019.3
20260906163052 64 185 3.0 7.0 0.00 0.03 0.01 85 1019.3
20260906161556 64 194 2.0 6.0 0.00 0.03 0.01 83 1019.3
20260906160051 64 189 2.0 8.0 0.00 0.03 0.01 83 1019.4
20260906154600 64 190 1.0 4.0 0.00 0.03 0.01 84 1019.3
20260906153055 64 190 1.0 5.0 0.00 0.03 0.01 85 1019.4
20260906151550 64 232 2.0 5.0 0.00 0.03 0.01 84 1019.5
20260906150100 64 188 1.0 5.0 0.00 0.03 0.01 85 1019.4
20260906144548 64 239 2.0 5.0 0.00 0.03 0.01 85 1019.3
20260906143048 64 244 2.0 5.0 0.00 0.03 0.01 86 1019.3
20260906141557 64 244 3.0 7.0 0.00 0.03 0.01 84 1019.4
20260906140050 65 234 2.0 7.0 0.00 0.03 0.01 84 1019.3
20260906134545 65 232 3.0 7.0 0.00 0.03 0.01 83 1019.1
20260906133044 64 257 3.0 7.0 0.00 0.03 0.01 84 1019.2
20260906131541 64 250 2.0 9.0 0.00 0.03 0.01 84 1019.2
20260906130048 64 263 4.0 11.0 0.00 0.03 0.01 85 1019.0
20260906124536 63 245 3.0 7.0 0.00 0.03 0.01 85 1018.9
20260906123042 63 250 2.0 8.0 0.00 0.03 0.01 86 1018.9
20260906121533 63 264 3.0 9.0 0.00 0.03 0.01 88 1018.9
20260906120032 63 254 2.0 10.0 0.00 0.03 0.01 88 1018.9
20260906114534 62 261 2.0 9.0 0.00 0.03 0.01 88 1018.8
20260906113033 62 246 2.0 10.0 0.00 0.03 0.01 88 1018.7
20260906111529 62 264 3.0 9.0 0.00 0.03 0.01 88 1018.7
20260906110026 62 275 2.0 7.0 0.00 0.03 0.01 88 1018.5
20260906104539 62 284 1.0 6.0 0.00 0.03 0.01 88 1018.5
20260906103040 61 221 2.0 8.0 0.00 0.03 0.01 88 1018.3
20260906101522 61 281 1.0 7.0 0.00 0.03 0.01 89 1018.1
20260906100026 61 274 1.0 5.0 0.00 0.03 0.01 89 1017.8
20260906094517 61 311 2.0 8.0 0.00 0.03 0.01 88 1017.5
20260906093021 61 314 2.0 5.0 0.00 0.03 0.01 88 1017.5
20260906091521 61 273 3.0 9.0 0.00 0.03 0.01 89 1017.4
20260906090010 60 236 2.0 7.0 0.00 0.03 0.01 88 1017.2
20260906084507 59 336 2.0 7.0 0.00 0.03 0.01 89 1017.1
20260906083006 59 323 2.0 6.0 0.00 0.03 0.01 88 1016.8
20260906081601 59 251 1.0 5.0 0.00 0.03 0.01 88 1016.7
20260906081500 59 237 1.0 5.0 0.00 0.03 0.01 88 1016.7
20260906080058 59 271 2.0 9.0 0.00 0.03 0.01 89 1016.4
20260906074555 59 270 1.0 9.0 0.00 0.03 0.01 88 1016.1
20260906073054 59 326 1.0 8.0 0.00 0.03 0.01 88 1015.9
20260906071552 59 324 1.0 11.0 0.00 0.03 0.01 88 1015.7
20260906070050 59 294 2.0 8.0 0.00 0.03 0.01 87 1015.5
20260906064548 59 321 2.0 9.0 0.00 0.03 0.01 87 1015.2
20260906063047 58 319 4.0 8.0 0.00 0.03 0.01 86 1015.2
20260906061543 58 309 3.0 7.0 0.00 0.03 0.01 87 1014.8
20260906060040 57 273 2.0 9.0 0.00 0.03 0.01 87 1014.6
20260906054555 56 332 2.0 9.0 0.00 0.03 0.01 88 1014.3
20260906053034 56 313 2.0 6.0 0.00 0.03 0.01 88 1014.1
20260906051535 55 324 2.0 5.0 0.00 0.03 0.01 88 1013.8
20260906050035 55 337 2.0 6.0 0.00 0.03 0.01 88 1013.5
20260906044526 54 337 2.0 4.0 0.00 0.03 0.01 88 1013.3
20260906043024 54 336 3.0 6.0 0.00 0.03 0.01 88 1013.0
20260906041520 54 331 2.0 5.0 0.00 0.03 0.01 88 1012.8
20260906040018 54 323 1.0 4.0 0.00 0.03 0.01 88 1012.5
20260906034520 55 317 2.0 6.0 0.00 0.03 0.01 88 1012.3
20260906033014 55 329 3.0 5.0 0.00 0.03 0.01 88 1012.0
20260906031538 55 329 2.0 5.0 0.00 0.03 0.01 88 1011.8
20260906030011 55 325 1.0 3.0 0.00 0.03 0.01 88 1011.4
20260906024528 55 313 1.0 4.0 0.00 0.03 0.01 88 1011.1
20260906023007 55 336 3.0 6.0 0.00 0.03 0.01 88 1010.8
20260906021503 55 321 2.0 3.0 0.00 0.03 0.01 88 1010.6
20260906020002 55 313 2.0 6.0 0.00 0.03 0.01 88 1010.3
20260906014600 55 315 2.0 5.0 0.00 0.03 0.01 88 1010.1
20260906013105 54 329 3.0 6.0 0.00 0.03 0.01 88 1009.9
20260906011556 54 319 2.0 5.0 0.01 0.03 0.01 88 1009.8
20260906003051 54 332 2.0 5.0 0.01 0.03 0.01 89 1009.2
20260905234521 55 329 2.0 6.0 0.00 0.02 0.00 89 1008.7
20260905233020 55 300 2.0 5.0 0.00 0.02 0.00 89 1008.6
20260905231517 55 331 3.0 5.0 0.00 0.02 0.00 89 1008.5
20260905230029 55 329 1.0 11.0 0.00 0.02 0.00 90 1008.2
20260905224518 55 14 1.0 3.0 0.00 0.02 0.00 91 1008.1
20260905223015 56 42 1.0 4.0 0.01 0.02 0.00 91 1007.7
20260905221508 56 36 3.0 5.0 0.02 0.02 0.00 91 1007.7
20260905220006 56 35 1.0 4.0 0.02 0.02 0.02 91 1007.5
20260905214505 56 329 1.0 4.0 0.02 0.02 0.02 93 1007.2
20260905213002 57 294 1.0 5.0 0.02 0.02 0.02 93 1007.1
20260905211504 57 316 0.0 11.0 0.01 0.01 0.01 93 1007.0
20260905210105 58 290 3.0 8.0 0.00 0.01 0.00 93 1006.8
20260905204607 58 292 2.0 7.0 0.00 0.01 0.00 93 1006.7
20260905203108 58 295 0.0 8.0 0.00 0.01 0.00 93 1006.6
20260905201602 58 275 1.0 7.0 0.00 0.01 0.00 93 1006.5
20260905200115 58 242 3.0 13.0 0.00 0.05 0.00 93 1006.3
20260905194553 58 227 2.0 10.0 0.00 0.05 0.00 93 1006.3
20260905193056 58 261 2.0 10.0 0.00 0.05 0.00 93 1006.2
20260905191551 59 267 2.0 8.0 0.00 0.05 0.00 92 1006.2
20260905190050 59 248 3.0 12.0 0.00 0.05 0.00 93 1006.0
20260905184551 59 269 1.0 7.0 0.00 0.05 0.00 92 1006.0
20260905183056 59 278 2.0 9.0 0.00 0.05 0.00 93 1006.0
20260905181548 59 237 3.0 9.0 0.00 0.05 0.00 93 1005.9
20260905180054 59 284 1.0 8.0 0.00 0.05 0.00 93 1005.8
20260905174552 59 253 2.0 7.0 0.00 0.05 0.00 93 1005.8
20260905173058 59 259 2.0 7.0 0.00 0.05 0.00 93 1005.6